Location: Bouchavesnes-Bergen
(49.9859°N, 2.9203°E)
Time: 01:04:14
(UTC+00:00)

Envisat - Pass Details

Date: 03 February 2023
Orbit: 763 x 765 km, 98.2° (Epoch: 28 March)

Event Time Altitude Azimuth Distance (km) Brightness Sun altitude
Rises 04:01:23 0° 14° (NNE) 3,246 6.6 -31.9°
Reaches altitude 10° 04:03:42 10° 16° (NNE) 2,315 5.8 -31.5°
Enters shadow 04:06:37 35° 20° (NNE) 1,224 4.2 -31.1°
